Regional Weather Roundup
Issued by NWS

Home | Current Version | Previous Version | Graphics & Text | Print | Product List | Glossary Off
Versions: 1 2 3 4 5 6 7 8 9 10 11 12 13 14 15 16 17 18 19 20 21 22 23 24 25 26 27 28 29 30 31 32 33 34 35 36 37 38 39 40 41 42 43 44 45 46 47 48 49 50

000
ASUS45 KBOU 160107
RWRCO

WEATHER ROUNDUP FOR COLORADO
NATIONAL WEATHER SERVICE DENVER/BOULDER CO
700 PM MDT MON SEP 15 2014

NOTE: "FAIR" INDICATES FEW OR NO CLOUDS BELOW 12000 FEET WITH NO
SIGNIFICANT WEATHER AND/OR OBSTRUCTIONS TO VISIBILITY.

COZ001>005-013-030-031-160200-
...NORTHWEST COLORADO...

CITY           SKY/WX    TMP DP  RH WIND       PRES   REMARKS
CRAIG          MOCLDY    71  40  32 S10       30.22S
HAYDEN         PTCLDY    72  34  25 W6        30.25S
MEEKER         CLEAR     72  42  34 SW3       30.24F
MOUNT WERNER   NOT AVBL
STEAMBOAT SPGS PTCLDY    68  41  37 NE8       30.27F
WALDEN         MOCLDY    63  32  31 NW3       30.36S
$$

COZ006>008-011-160200-
...WEST CENTRAL VALLEYS...

CITY           SKY/WX    TMP DP  RH WIND       PRES   REMARKS
GRAND JUNCTION CLEAR     81  44  27 W5        30.10F
MONTROSE       CLEAR     79  43  27 NW3       30.18F
EAGLE          PTCLDY    75  36  23 CALM      30.27F
RIFLE          PTCLDY    78  42  27 W3        30.18S
DELTA          CLEAR     86  32  14 N7        30.13S
NUCLA          CLEAR     79  37  22 W3        30.22S
$$

COZ017>023-064>068-160200-
...SOUTHWEST COLORADO...

CITY           SKY/WX    TMP DP  RH WIND       PRES   REMARKS
DURANGO        PTCLDY    76  31  19 SW3       30.23S
CORTEZ         CLEAR     80  41  24 W5        30.18S
PAGOSA SPRINGS MOCLDY    77  27  15 W7        30.31S
TELLURIDE      NOT AVBL
WOLF CREEK PAS MOCLDY    50  30  46 CALM      30.64S
$$

COZ009-010-012-014-032>034-037-058>063-160200-
...CENTRAL COLORADO...

CITY           SKY/WX    TMP DP  RH WIND       PRES   REMARKS
ASPEN          MOCLDY    66  36  32 W5        30.35R
BUENA VISTA    PTCLDY    65  41  41 SE8       30.38R
COPPER MTN     PTCLDY    54  30  40 W9G18     30.67S
BERTHOUD PASS  FAIR      43  41  93 NW7       30.71S
COTTONWOOD PAS PTCLDY    63  27  25 CALM      30.51S
GUNNISON       CLEAR     72  34  25 N7        30.33S
KREMMLING      PTCLDY    70  32  24 W6        30.33S
LEADVILLE      PTCLDY    57  30  35 NE5       30.50R
MONARCH PASS   PTCLDY    48  36  61 NE18      30.74F
SALIDA         PTCLDY    65  46  48 SE17G25   30.42S
SUNLIGHT       PTCLDY    55  36  47 CALM      30.59F
WILKERSON PASS NOT AVBL
$$

COZ069>075-160200-
...SAN LUIS VALLEY/SANGRE DE CRISTO MOUNTAINS...

CITY           SKY/WX    TMP DP  RH WIND       PRES   REMARKS
ALAMOSA        MOCLDY    61  47  59 E3        30.36F
LA VETA PASS   NOT AVBL
SAGUACHE       NOT AVBL
$$

COZ035-036-038>040-160200-
...NORTHERN COLORADO FRONT RANGE...

CITY           SKY/WX    TMP DP  RH WIND       PRES   REMARKS
DENVER INTL AP PTCLDY    68  52  56 SE8       30.23F
DMNS CITY PARK   N/A     67  48  50 S3        30.24F
AURORA         MOCLDY    67  51  56 W7        30.26S
FRONT RANGE AP NOT AVBL
ERIE MUNI ARPT PTCLDY    68  44  41 CALM      30.24R
BOULDER MUN AP PTCLDY    64  45  48 CALM      30.25R
CENTENNIAL     MOCLDY    67  47  48 W7        30.28R THUNDER
BROOMFIELD     MOCLDY    68  45  42 VRB3      30.27R
FORT COLLINS   CLEAR     66  45  45 SE5       30.24S
LONGMONT       CLEAR     62  50  63 CALM      30.25S
$$

COZ041-046-047-076>085-087-088-160200-
...PIKES PEAK/PALMER DIVIDE AND SOUTHERN FOOTHILLS...

CITY           SKY/WX    TMP DP  RH WIND       PRES   REMARKS
COLO. SPRINGS  PTCLDY    61  48  62 S13       30.34R
A. F. ACADEMY  PTCLDY    60  48  64 S12       30.35R
ELLICOTT       NOT AVBL
FALCON         PTCLDY    58  47  67 S9        30.38R
FORT CARSON    CLOUDY    63  50  63 S12       30.32R
LIMON          CLEAR     59  50  72 SE13      30.30S
MONUMENT HILL  PTCLDY    55  46  71 S10       30.35R
TRINIDAD       PTCLDY    59  52  77 E10       30.32S
$$

COZ042>045-048>051-090-091-160200-
...NORTHEAST COLORADO...

CITY           SKY/WX    TMP DP  RH WIND       PRES   REMARKS
GREELEY ARPT   CLEAR     64  46  52 E6        30.22F
AKRON          CLEAR     60  50  69 S13       30.25F
BURLINGTON     CLEAR     60  49  66 SE6       30.28R
WRAY           CLEAR     62  48  60 SE8       30.25S
STERLING       CLEAR     64  54  68 S6        30.21S
HOLYOKE        CLEAR     59  48  67 S7        30.25S
FORT MORGAN    CLEAR     60  51  71 SE5       30.24F
$$

COZ086-089-092>099-160200-
...SOUTHEAST COLORADO...

CITY           SKY/WX    TMP DP  RH WIND       PRES   REMARKS
PUEBLO         PTCLDY    66  52  60 SE14      30.27S
LA JUNTA       CLOUDY    62  52  69 SE9       30.29R
LAMAR          CLOUDY    63  51  65 E6        30.26S
SPRINGFIELD      N/A     57  52  83 E9        30.30R
$$


USA.gov is the U.S. government's official web portal to all federal, state and local government web resources and services.